Time,TemperatureF,DewpointF,PressureIn,WindDirection,WindDirectionDegrees,WindSpeedMPH,WindSpeedGustMPH,Humidity,HourlyPrecipIn,Conditions,Clouds,dailyrainin,SoftwareType,DateUTC
2013-03-04 00:00:00,40.5,28.5,29.87,ESE,110,4.5,8.1,62,0.00,RA,,0.00,WeatherDisplay:10.37,2013-03-04 06:00:00,
2013-03-04 00:05:00,40.3,28.7,29.87,ESE,103,3.7,8.1,63,0.00,RA,,0.00,WeatherDisplay:10.37,2013-03-04 06:05:00,
2013-03-04 00:10:00,40.1,28.5,29.86,ESE,111,4.9,6.9,63,0.00,,,0.00,WeatherDisplay:10.37,2013-03-04 06:10:00,
2013-03-04 00:15:00,40.1,28.9,29.86,ESE,119,3.4,4.6,64,0.00,,,0.00,WeatherDisplay:10.37,2013-03-04 06:15:00,
2013-03-04 00:20:00,40.0,28.8,29.86,East,95,5.6,8.1,64,0.00,,,0.00,WeatherDisplay:10.37,2013-03-04 06:20:00,
2013-03-04 00:25:00,40.0,28.8,29.86,SE,124,5.8,9.2,64,0.00,,,0.00,WeatherDisplay:10.37,2013-03-04 06:25:00,
2013-03-04 00:30:00,40.0,28.8,29.85,ESE,107,4.2,11.5,64,0.00,,,0.00,WeatherDisplay:10.37,2013-03-04 06:30:00,
2013-03-04 00:35:00,39.8,29.0,29.85,ESE,107,3.3,6.9,65,0.00,,,0.00,WeatherDisplay:10.37,2013-03-04 06:35:00,
2013-03-04 00:40:00,39.7,28.9,29.85,SE,144,5.0,5.8,65,0.00,,,0.00,WeatherDisplay:10.37,2013-03-04 06:40:00,
2013-03-04 00:45:00,39.7,28.9,29.85,East,88,6.2,10.4,65,0.00,,,0.00,WeatherDisplay:10.37,2013-03-04 06:45:00,
2013-03-04 00:50:00,39.6,28.8,29.84,ESE,105,4.2,10.4,65,0.00,,,0.00,WeatherDisplay:10.37,2013-03-04 06:50:00,
2013-03-04 00:55:00,39.6,29.2,29.84,East,88,7.0,10.4,66,0.00,,,0.00,WeatherDisplay:10.37,2013-03-04 06:55:00,
2013-03-04 01:00:00,39.5,29.1,29.84,East,96,6.0,10.4,66,0.00,,,0.00,WeatherDisplay:10.37,2013-03-04 07:00:00,
2013-03-04 01:05:00,39.4,29.0,29.84,ESE,110,2.9,5.8,66,0.00,,,0.00,WeatherDisplay:10.37,2013-03-04 07:05:00,
2013-03-04 01:10:00,39.2,28.8,29.83,SSE,156,4.5,4.6,66,0.00,,,0.00,WeatherDisplay:10.37,2013-03-04 07:10:00,
2013-03-04 01:15:00,39.2,28.8,29.84,ESE,118,5.7,7.0,66,0.00,,,0.00,WeatherDisplay:10.37,2013-03-04 07:15:00,
2013-03-04 01:20:00,39.1,29.1,29.83,ESE,115,4.1,5.8,67,0.00,,,0.00,WeatherDisplay:10.37,2013-03-04 07:20:00,
2013-03-04 01:25:00,39.0,29.0,29.83,ENE,70,7.6,10.4,67,0.00,,,0.00,WeatherDisplay:10.37,2013-03-04 07:25:00,
2013-03-04 01:30:00,38.9,28.9,29.83,East,79,5.6,9.2,67,0.00,,,0.00,WeatherDisplay:10.37,2013-03-04 07:30:00,
2013-03-04 01:35:00,38.9,28.9,29.83,ESE,115,7.2,10.4,67,0.00,,,0.00,WeatherDisplay:10.37,2013-03-04 07:35:00,
2013-03-04 01:40:00,38.8,28.8,29.83,ESE,119,5.6,9.2,67,0.00,,,0.00,WeatherDisplay:10.37,2013-03-04 07:40:00,
2013-03-04 01:45:00,38.7,29.0,29.82,East,79,4.9,11.5,68,0.00,,,0.00,WeatherDisplay:10.37,2013-03-04 07:45:00,
2013-03-04 01:50:00,38.6,28.9,29.82,ESE,103,2.7,6.0,68,0.00,,,0.00,WeatherDisplay:10.37,2013-03-04 07:50:00,
2013-03-04 01:55:00,38.6,28.9,29.82,ESE,121,6.3,9.2,68,0.00,,,0.00,WeatherDisplay:10.37,2013-03-04 07:55:00,
2013-03-04 02:01:00,38.5,28.9,29.82,East,101,4.5,8.1,68,0.00,,,0.00,WeatherDisplay:10.37,2013-03-04 08:01:00,
2013-03-04 02:06:00,38.6,28.9,29.81,East,100,4.5,10.4,68,0.00,,,0.00,WeatherDisplay:10.37,2013-03-04 08:06:00,
2013-03-04 02:11:00,38.6,28.9,29.81,SE,125,4.7,11.0,68,0.00,,,0.00,WeatherDisplay:10.37,2013-03-04 08:11:00,
2013-03-04 02:16:00,38.7,29.0,29.80,ENE,75,7.2,11.5,68,0.00,,,0.00,WeatherDisplay:10.37,2013-03-04 08:16:00,
2013-03-04 02:21:00,38.6,28.9,29.80,SE,139,6.5,10.4,68,0.00,,,0.00,WeatherDisplay:10.37,2013-03-04 08:21:00,
2013-03-04 02:26:00,38.6,28.9,29.80,East,95,4.8,5.8,68,0.00,,,0.00,WeatherDisplay:10.37,2013-03-04 08:26:00,
2013-03-04 02:31:00,38.6,28.9,29.79,East,95,5.6,8.1,68,0.00,,,0.00,WeatherDisplay:10.37,2013-03-04 08:31:00,
2013-03-04 02:36:00,38.6,28.9,29.79,ESE,107,5.7,9.2,68,0.00,,,0.00,WeatherDisplay:10.37,2013-03-04 08:36:00,
2013-03-04 02:41:00,38.6,29.3,29.78,SE,129,5.8,8.1,69,0.00,,,0.00,WeatherDisplay:10.37,2013-03-04 08:41:00,
2013-03-04 02:46:00,38.6,29.3,29.78,SSW,193,6.8,11.5,69,0.00,,,0.00,WeatherDisplay:10.37,2013-03-04 08:46:00,
2013-03-04 02:51:00,38.6,29.3,29.78,ENE,71,6.0,10.4,69,0.00,,,0.00,WeatherDisplay:10.37,2013-03-04 08:51:00,
2013-03-04 02:56:00,38.7,29.4,29.77,ESE,102,3.8,8.1,69,0.00,,,0.00,WeatherDisplay:10.37,2013-03-04 08:56:00,
2013-03-04 03:01:00,38.6,29.3,29.77,East,84,6.1,8.1,69,0.00,,,0.00,WeatherDisplay:10.37,2013-03-04 09:01:00,
2013-03-04 03:06:00,38.6,29.3,29.77,SE,124,5.6,10.4,69,0.00,,,0.00,WeatherDisplay:10.37,2013-03-04 09:06:00,
2013-03-04 03:11:00,38.6,29.3,29.77,East,94,5.8,8.1,69,0.00,,,0.00,WeatherDisplay:10.37,2013-03-04 09:11:00,
2013-03-04 03:16:00,38.6,29.3,29.76,SSE,160,5.3,9.2,69,0.00,,,0.00,WeatherDisplay:10.37,2013-03-04 09:16:00,
2013-03-04 03:21:00,38.6,29.3,29.76,ESE,111,6.1,16.0,69,0.00,,,0.00,WeatherDisplay:10.37,2013-03-04 09:21:00,
2013-03-04 03:26:00,38.6,29.3,29.76,East,79,7.8,10.4,69,0.00,,,0.00,WeatherDisplay:10.37,2013-03-04 09:26:00,
2013-03-04 03:31:00,38.6,29.3,29.76,ESE,122,4.5,9.2,69,0.00,,,0.00,WeatherDisplay:10.37,2013-03-04 09:31:00,
2013-03-04 03:36:00,38.5,29.2,29.76,ESE,120,5.8,6.9,69,0.00,,,0.00,WeatherDisplay:10.37,2013-03-04 09:36:00,
2013-03-04 03:41:00,38.5,29.2,29.76,ESE,113,3.3,5.8,69,0.00,,,0.00,WeatherDisplay:10.37,2013-03-04 09:41:00,
2013-03-04 03:46:00,38.5,29.2,29.75,SE,142,6.2,10.4,69,0.00,,,0.00,WeatherDisplay:10.37,2013-03-04 09:46:00,
2013-03-04 03:51:00,38.4,29.1,29.75,ESE,120,4.0,7.0,69,0.00,,,0.00,WeatherDisplay:10.37,2013-03-04 09:51:00,
2013-03-04 03:56:00,38.4,29.5,29.75,ESE,113,3.6,4.6,70,0.00,,,0.00,WeatherDisplay:10.37,2013-03-04 09:56:00,
2013-03-04 04:01:00,38.4,29.5,29.75,ESE,105,6.4,9.2,70,0.00,,,0.00,WeatherDisplay:10.37,2013-03-04 10:01:00,
2013-03-04 04:06:00,38.3,29.4,29.75,ESE,120,4.0,6.9,70,0.00,,,0.00,WeatherDisplay:10.37,2013-03-04 10:06:00,
2013-03-04 04:11:00,38.3,29.4,29.75,East,90,3.9,7.0,70,0.00,,,0.00,WeatherDisplay:10.37,2013-03-04 10:11:00,
2013-03-04 04:16:00,38.2,29.3,29.75,ESE,114,4.7,11.5,70,0.00,,,0.00,WeatherDisplay:10.37,2013-03-04 10:16:00,
2013-03-04 04:21:00,38.2,29.3,29.74,ESE,111,4.5,7.0,70,0.00,,,0.00,WeatherDisplay:10.37,2013-03-04 10:21:00,
2013-03-04 04:26:00,38.2,29.3,29.74,SE,145,5.2,6.9,70,0.00,,,0.00,WeatherDisplay:10.37,2013-03-04 10:26:00,
2013-03-04 04:31:00,38.2,29.3,29.74,SSE,160,3.5,8.1,70,0.00,,,0.00,WeatherDisplay:10.37,2013-03-04 10:31:00,
2013-03-04 04:36:00,38.2,29.3,29.74,ESE,105,5.2,9.2,70,0.00,,,0.00,WeatherDisplay:10.37,2013-03-04 10:36:00,
2013-03-04 04:41:00,38.3,29.4,29.74,East,97,3.5,6.9,70,0.00,,,0.00,WeatherDisplay:10.37,2013-03-04 10:41:00,
2013-03-04 04:46:00,38.3,29.4,29.74,East,100,5.6,5.6,70,0.00,,,0.00,WeatherDisplay:10.37,2013-03-04 10:46:00,
2013-03-04 04:51:00,38.3,29.4,29.74,East,90,4.8,9.2,70,0.00,,,0.00,WeatherDisplay:10.37,2013-03-04 10:51:00,
2013-03-04 04:56:00,38.3,29.4,29.74,ESE,113,5.0,5.8,70,0.00,,,0.00,WeatherDisplay:10.37,2013-03-04 10:56:00,
2013-03-04 05:01:00,38.3,29.4,29.74,ESE,112,5.7,11.5,70,0.00,,,0.00,WeatherDisplay:10.37,2013-03-04 11:01:00,
2013-03-04 05:06:00,38.3,29.4,29.74,East,87,3.8,11.5,70,0.00,,,0.00,WeatherDisplay:10.37,2013-03-04 11:06:00,
2013-03-04 05:11:00,38.2,29.6,29.74,ESE,113,4.7,6.9,71,0.00,,,0.00,WeatherDisplay:10.37,2013-03-04 11:11:00,
2013-03-04 05:16:00,38.1,29.5,29.74,ESE,122,4.0,5.8,71,0.00,,,0.00,WeatherDisplay:10.37,2013-03-04 11:16:00,
2013-03-04 05:21:00,38.1,29.5,29.74,ESE,105,3.8,8.1,71,0.00,,,0.00,WeatherDisplay:10.37,2013-03-04 11:21:00,
2013-03-04 05:26:00,38.1,29.5,29.74,SSE,149,4.0,6.0,71,0.00,,,0.00,WeatherDisplay:10.37,2013-03-04 11:26:00,
2013-03-04 05:31:00,38.0,29.4,29.74,East,89,3.8,8.1,71,0.00,,,0.00,WeatherDisplay:10.37,2013-03-04 11:31:00,
2013-03-04 05:36:00,38.1,29.5,29.74,SE,131,3.4,9.2,71,0.00,,,0.00,WeatherDisplay:10.37,2013-03-04 11:36:00,
2013-03-04 05:41:00,38.1,29.5,29.74,SE,136,4.3,5.8,71,0.00,,,0.00,WeatherDisplay:10.37,2013-03-04 11:41:00,
2013-03-04 05:46:00,38.0,29.8,29.74,ESE,113,4.8,8.1,72,0.00,,,0.00,WeatherDisplay:10.37,2013-03-04 11:46:00,
2013-03-04 05:51:00,38.0,29.8,29.74,SSE,149,3.9,8.1,72,0.00,,,0.00,WeatherDisplay:10.37,2013-03-04 11:51:00,
2013-03-04 05:56:00,37.9,29.7,29.74,ESE,105,5.7,5.7,72,0.00,,,0.00,WeatherDisplay:10.37,2013-03-04 11:56:00,
2013-03-04 06:01:00,37.9,29.7,29.74,ESE,116,4.8,5.8,72,0.00,,,0.00,WeatherDisplay:10.37,2013-03-04 12:01:00,
2013-03-04 06:06:00,37.9,29.7,29.74,ESE,111,5.7,9.2,72,0.00,,,0.00,WeatherDisplay:10.37,2013-03-04 12:06:00,
2013-03-04 06:11:00,37.8,29.6,29.74,ESE,105,4.4,8.1,72,0.00,,,0.00,WeatherDisplay:10.37,2013-03-04 12:11:00,
2013-03-04 06:16:00,37.8,29.6,29.74,ESE,117,6.4,10.4,72,0.00,,,0.00,WeatherDisplay:10.37,2013-03-04 12:16:00,
2013-03-04 06:21:00,37.7,29.8,29.74,ESE,102,4.1,5.0,73,0.00,,,0.00,WeatherDisplay:10.37,2013-03-04 12:21:00,
2013-03-04 06:26:00,37.7,29.8,29.74,East,82,6.6,9.0,73,0.00,,,0.00,WeatherDisplay:10.37,2013-03-04 12:26:00,
2013-03-04 06:31:00,37.7,29.8,29.74,East,99,3.9,10.4,73,0.00,,,0.00,WeatherDisplay:10.37,2013-03-04 12:31:00,
2013-03-04 06:36:00,37.7,29.8,29.73,ESE,115,3.8,11.5,73,0.00,,,0.00,WeatherDisplay:10.37,2013-03-04 12:36:00,
2013-03-04 06:42:00,37.7,29.8,29.73,East,89,6.9,9.2,73,0.00,,,0.00,WeatherDisplay:10.37,2013-03-04 12:42:00,
2013-03-04 06:47:00,37.6,29.7,29.73,ESE,103,4.2,5.8,73,0.00,,,0.00,WeatherDisplay:10.37,2013-03-04 12:47:00,
2013-03-04 06:52:00,37.6,29.7,29.73,East,94,6.3,9.0,73,0.00,,,0.00,WeatherDisplay:10.37,2013-03-04 12:52:00,
2013-03-04 06:57:00,37.7,30.2,29.73,ESE,119,6.3,10.4,74,0.00,,,0.00,WeatherDisplay:10.37,2013-03-04 12:57:00,
2013-03-04 07:02:00,37.7,30.2,29.73,East,85,5.4,8.1,74,0.00,,,0.00,WeatherDisplay:10.37,2013-03-04 13:02:00,
2013-03-04 07:07:00,37.7,30.2,29.73,SE,134,5.8,11.5,74,0.00,,,0.00,WeatherDisplay:10.37,2013-03-04 13:07:00,
2013-03-04 07:12:00,37.7,30.2,29.73,ESE,117,3.6,9.2,74,0.00,,,0.00,WeatherDisplay:10.37,2013-03-04 13:12:00,
2013-03-04 07:17:00,37.8,30.3,29.73,SE,131,3.4,8.0,74,0.00,,,0.00,WeatherDisplay:10.37,2013-03-04 13:17:00,
2013-03-04 07:22:00,37.9,30.4,29.73,ESE,103,5.3,10.4,74,0.00,,,0.00,WeatherDisplay:10.37,2013-03-04 13:22:00,
2013-03-04 07:27:00,37.9,30.4,29.73,SE,137,3.2,4.6,74,0.00,,,0.00,WeatherDisplay:10.37,2013-03-04 13:27:00,
2013-03-04 07:32:00,38.1,30.5,29.73,ESE,110,3.8,6.9,74,0.00,,,0.00,WeatherDisplay:10.37,2013-03-04 13:32:00,
2013-03-04 07:37:00,38.2,30.6,29.73,ESE,105,4.9,9.0,74,0.00,,,0.00,WeatherDisplay:10.37,2013-03-04 13:37:00,
2013-03-04 07:42:00,38.4,30.8,29.74,ESE,112,3.9,5.8,74,0.00,,,0.00,WeatherDisplay:10.37,2013-03-04 13:42:00,
2013-03-04 07:47:00,38.5,30.6,29.73,SE,127,5.8,11.5,73,0.00,,,0.00,WeatherDisplay:10.37,2013-03-04 13:47:00,
2013-03-04 07:52:00,38.7,30.8,29.74,ESE,106,5.9,9.2,73,0.00,,,0.00,WeatherDisplay:10.37,2013-03-04 13:52:00,
2013-03-04 07:57:00,38.8,31.2,29.74,East,96,4.0,5.8,74,0.00,,,0.00,WeatherDisplay:10.37,2013-03-04 13:57:00,
2013-03-04 08:02:00,38.9,31.0,29.74,ESE,118,5.0,9.2,73,0.00,,,0.00,WeatherDisplay:10.37,2013-03-04 14:02:00,
2013-03-04 08:07:00,39.2,31.3,29.74,ESE,105,2.5,5.0,73,0.00,,,0.00,WeatherDisplay:10.37,2013-03-04 14:07:00,
2013-03-04 08:12:00,39.6,31.3,29.74,East,95,4.7,8.1,72,0.00,,,0.00,WeatherDisplay:10.37,2013-03-04 14:12:00,
2013-03-04 08:17:00,40.1,31.8,29.74,ESE,106,4.2,6.9,72,0.00,,,0.00,WeatherDisplay:10.37,2013-03-04 14:17:00,
2013-03-04 08:22:00,40.1,31.4,29.74,SSE,149,6.2,9.2,71,0.00,,,0.00,WeatherDisplay:10.37,2013-03-04 14:22:00,
2013-03-04 08:27:00,40.3,32.0,29.74,East,86,5.9,8.1,72,0.00,,,0.00,WeatherDisplay:10.37,2013-03-04 14:27:00,
2013-03-04 08:32:00,40.4,32.1,29.74,ENE,59,5.1,10.4,72,0.00,,,0.00,WeatherDisplay:10.37,2013-03-04 14:32:00,
2013-03-04 08:37:00,40.7,32.0,29.73,East,86,6.3,12.7,71,0.00,,,0.00,WeatherDisplay:10.37,2013-03-04 14:37:00,
2013-03-04 08:42:00,41.4,32.3,29.73,SE,145,3.9,5.8,70,0.00,,,0.00,WeatherDisplay:10.37,2013-03-04 14:42:00,
2013-03-04 08:47:00,41.9,32.5,29.73,East,83,6.7,11.5,69,0.00,,,0.00,WeatherDisplay:10.37,2013-03-04 14:47:00,
2013-03-04 08:52:00,42.0,32.6,29.73,ESE,103,5.8,11.5,69,0.00,,,0.00,WeatherDisplay:10.37,2013-03-04 14:52:00,
2013-03-04 08:57:00,42.2,32.8,29.73,ESE,114,3.7,6.9,69,0.00,,,0.00,WeatherDisplay:10.37,2013-03-04 14:57:00,
2013-03-04 09:02:00,42.5,33.0,29.73,East,83,3.4,9.2,69,0.00,,,0.00,WeatherDisplay:10.37,2013-03-04 15:02:00,
2013-03-04 09:07:00,42.8,33.3,29.73,East,95,8.2,15.0,69,0.00,,,0.00,WeatherDisplay:10.37,2013-03-04 15:07:00,
2013-03-04 09:12:00,43.1,33.6,29.73,ESE,110,6.0,11.0,69,0.00,,,0.00,WeatherDisplay:10.37,2013-03-04 15:12:00,
2013-03-04 09:17:00,43.5,33.6,29.73,ESE,122,4.3,6.9,68,0.00,,,0.00,WeatherDisplay:10.37,2013-03-04 15:17:00,
2013-03-04 09:22:00,43.4,33.5,29.73,SSW,192,5.3,9.2,68,0.00,,,0.00,WeatherDisplay:10.37,2013-03-04 15:22:00,
2013-03-04 09:27:00,43.6,33.7,29.73,SE,135,4.7,7.0,68,0.00,,,0.00,WeatherDisplay:10.37,2013-03-04 15:27:00,
2013-03-04 09:32:00,44.1,34.2,29.73,East,84,4.5,11.5,68,0.00,,,0.00,WeatherDisplay:10.37,2013-03-04 15:32:00,
2013-03-04 09:37:00,44.9,34.6,29.72,East,101,4.8,9.2,67,0.00,,,0.00,WeatherDisplay:10.37,2013-03-04 15:37:00,
2013-03-04 09:42:00,45.6,34.5,29.72,East,92,6.8,13.8,65,0.00,,,0.00,WeatherDisplay:10.37,2013-03-04 15:42:00,
2013-03-04 09:47:00,45.7,35.0,29.72,SSE,148,1.8,4.6,66,0.00,,,0.00,WeatherDisplay:10.37,2013-03-04 15:47:00,
2013-03-04 09:52:00,46.3,34.8,29.72,ESE,115,6.6,13.0,64,0.00,,,0.00,WeatherDisplay:10.37,2013-03-04 15:52:00,
2013-03-04 09:57:00,46.6,35.5,29.72,ESE,110,4.5,5.8,65,0.00,,,0.00,WeatherDisplay:10.37,2013-03-04 15:57:00,
2013-03-04 10:02:00,47.0,35.0,29.72,South,181,5.6,9.2,63,0.00,,,0.00,WeatherDisplay:10.37,2013-03-04 16:02:00,
2013-03-04 10:07:00,47.6,36.0,29.72,ENE,70,3.0,5.8,64,0.00,,,0.00,WeatherDisplay:10.37,2013-03-04 16:07:00,
2013-03-04 10:12:00,48.1,35.7,29.72,ESE,115,7.9,10.0,62,0.00,,,0.00,WeatherDisplay:10.37,2013-03-04 16:12:00,
2013-03-04 10:17:00,47.8,35.8,29.72,East,89,7.0,9.2,63,0.00,,,0.00,WeatherDisplay:10.37,2013-03-04 16:17:00,
2013-03-04 10:22:00,48.4,36.0,29.72,South,169,3.1,8.1,62,0.00,,,0.00,WeatherDisplay:10.37,2013-03-04 16:22:00,
2013-03-04 10:27:00,49.2,36.3,29.71,East,100,5.1,10.4,61,0.00,,,0.00,WeatherDisplay:10.37,2013-03-04 16:27:00,
2013-03-04 10:32:00,49.7,36.8,29.71,SE,143,4.5,6.9,61,0.00,,,0.00,WeatherDisplay:10.37,2013-03-04 16:32:00,
2013-03-04 10:37:00,49.3,36.4,29.71,SE,130,6.2,10.4,61,0.00,,,0.00,WeatherDisplay:10.37,2013-03-04 16:37:00,
2013-03-04 10:42:00,49.7,37.2,29.70,ENE,67,5.9,12.7,62,0.00,,,0.00,WeatherDisplay:10.37,2013-03-04 16:42:00,
2013-03-04 10:47:00,50.0,37.1,29.70,East,91,4.2,6.9,61,0.00,,,0.00,WeatherDisplay:10.37,2013-03-04 16:47:00,
2013-03-04 10:52:00,50.1,37.2,29.70,SE,124,3.8,9.2,61,0.00,,,0.00,WeatherDisplay:10.37,2013-03-04 16:52:00,
2013-03-04 10:57:00,50.5,37.1,29.70,SSE,153,6.8,11.5,60,0.00,,,0.00,WeatherDisplay:10.37,2013-03-04 16:57:00,
2013-03-04 11:02:00,50.8,37.4,29.70,East,91,4.4,9.2,60,0.00,,,0.00,WeatherDisplay:10.37,2013-03-04 17:02:00,
2013-03-04 11:07:00,51.4,37.5,29.70,SE,146,7.9,10.4,59,0.00,,,0.00,WeatherDisplay:10.37,2013-03-04 17:07:00,
2013-03-04 11:12:00,52.2,38.3,29.70,ESE,103,6.8,9.2,59,0.00,,,0.00,WeatherDisplay:10.37,2013-03-04 17:12:00,
2013-03-04 11:17:00,52.6,38.7,29.70,SSE,152,5.3,9.2,59,0.00,,,0.00,WeatherDisplay:10.37,2013-03-04 17:17:00,
2013-03-04 11:22:00,52.9,39.0,29.69,SSE,159,4.4,8.1,59,0.00,,,0.00,WeatherDisplay:10.37,2013-03-04 17:22:00,
2013-03-04 11:27:00,52.9,38.5,29.69,SSE,159,4.7,9.2,58,0.00,,,0.00,WeatherDisplay:10.37,2013-03-04 17:27:00,
2013-03-04 11:32:00,52.9,39.0,29.69,ESE,103,6.1,10.0,59,0.00,,,0.00,WeatherDisplay:10.37,2013-03-04 17:32:00,
2013-03-04 11:37:00,53.5,39.1,29.69,SSW,207,3.6,11.5,58,0.00,,,0.00,WeatherDisplay:10.37,2013-03-04 17:37:00,
2013-03-04 11:42:00,53.8,38.9,29.69,ENE,75,4.9,8.1,57,0.00,,,0.00,WeatherDisplay:10.37,2013-03-04 17:42:00,
2013-03-04 11:47:00,54.0,39.5,29.68,SSE,153,5.1,10.4,58,0.00,,,0.00,WeatherDisplay:10.37,2013-03-04 17:47:00,
2013-03-04 11:52:00,54.0,39.1,29.68,SSE,165,6.8,8.1,57,0.00,,,0.00,WeatherDisplay:10.37,2013-03-04 17:52:00,
2013-03-04 11:57:00,54.8,39.8,29.68,ESE,120,5.0,10.0,57,0.00,,,0.00,WeatherDisplay:10.37,2013-03-04 17:57:00,
2013-03-04 12:03:00,55.7,40.2,29.67,East,96,5.0,9.0,56,0.00,,,0.00,WeatherDisplay:10.37,2013-03-04 18:03:00,
2013-03-04 12:07:00,55.2,39.8,29.67,ESE,116,4.6,9.2,56,0.00,,,0.00,WeatherDisplay:10.37,2013-03-04 18:07:00,
2013-03-04 12:13:00,55.3,40.8,29.67,WSW,252,4.0,8.1,58,0.00,,,0.00,WeatherDisplay:10.37,2013-03-04 18:13:00,
2013-03-04 12:18:00,56.1,40.6,29.66,SE,139,6.5,10.4,56,0.00,,,0.00,WeatherDisplay:10.37,2013-03-04 18:18:00,
2013-03-04 12:23:00,56.1,40.6,29.66,SE,132,5.0,5.8,56,0.00,,,0.00,WeatherDisplay:10.37,2013-03-04 18:23:00,
2013-03-04 12:28:00,56.4,40.9,29.66,SSW,212,3.2,4.6,56,0.00,,,0.00,WeatherDisplay:10.37,2013-03-04 18:28:00,
2013-03-04 12:30:00,56.6,41.1,29.66,East,95,6.1,9.0,56,0.00,,,0.00,WeatherDisplay:10.37,2013-03-04 18:30:00,
2013-03-04 12:35:00,56.8,40.8,29.65,East,98,7.7,10.4,55,0.00,,,0.00,WeatherDisplay:10.37,2013-03-04 18:35:00,
2013-03-04 12:40:00,57.4,41.8,29.65,ESE,102,5.4,11.5,56,0.00,,,0.00,WeatherDisplay:10.37,2013-03-04 18:40:00,
2013-03-04 12:45:00,57.3,41.7,29.65,SSE,162,5.0,9.2,56,0.00,,,0.00,WeatherDisplay:10.37,2013-03-04 18:45:00,
2013-03-04 12:50:00,57.6,42.0,29.65,SE,136,4.7,11.5,56,0.00,,,0.00,WeatherDisplay:10.37,2013-03-04 18:50:00,
2013-03-04 12:55:00,58.7,42.6,29.65,ENE,70,4.5,6.0,55,0.00,,,0.00,WeatherDisplay:10.37,2013-03-04 18:55:00,
2013-03-04 13:00:00,58.4,41.8,29.64,East,100,9.2,12.7,54,0.00,,,0.00,WeatherDisplay:10.37,2013-03-04 19:00:00,
2013-03-04 13:05:00,58.6,42.5,29.64,South,176,3.5,6.9,55,0.00,,,0.00,WeatherDisplay:10.37,2013-03-04 19:05:00,
2013-03-04 13:10:00,58.9,42.3,29.63,ESE,108,6.2,9.2,54,0.00,,,0.00,WeatherDisplay:10.37,2013-03-04 19:10:00,
2013-03-04 13:15:00,59.3,43.1,29.62,East,94,4.1,9.2,55,0.00,,,0.00,WeatherDisplay:10.37,2013-03-04 19:15:00,
2013-03-04 13:20:00,60.3,43.6,29.62,SSE,167,3.2,6.9,54,0.00,,,0.00,WeatherDisplay:10.37,2013-03-04 19:20:00,
2013-03-04 13:25:00,60.2,43.5,29.62,East,81,2.5,7.0,54,0.00,,,0.00,WeatherDisplay:10.37,2013-03-04 19:25:00,
2013-03-04 13:30:00,59.9,43.2,29.62,ESE,110,2.7,5.8,54,0.00,,,0.00,WeatherDisplay:10.37,2013-03-04 19:30:00,
2013-03-04 13:35:00,60.8,44.0,29.61,SE,127,5.1,11.5,54,0.00,,,0.00,WeatherDisplay:10.37,2013-03-04 19:35:00,
2013-03-04 13:40:00,60.5,44.2,29.61,SE,146,5.4,8.0,55,0.00,,,0.00,WeatherDisplay:10.37,2013-03-04 19:40:00,
2013-03-04 13:45:00,60.9,43.6,29.61,South,184,6.5,11.5,53,0.00,,,0.00,WeatherDisplay:10.37,2013-03-04 19:45:00,
2013-03-04 13:50:00,61.3,44.0,29.61,ESE,122,5.2,8.1,53,0.00,,,0.00,WeatherDisplay:10.37,2013-03-04 19:50:00,
2013-03-04 13:55:00,62.0,44.2,29.61,ENE,71,2.2,3.5,52,0.00,,,0.00,WeatherDisplay:10.37,2013-03-04 19:55:00,
2013-03-04 14:00:00,62.6,44.7,29.61,SE,143,3.9,8.0,52,0.00,,,0.00,WeatherDisplay:10.37,2013-03-04 20:00:00,
2013-03-04 14:05:00,62.1,44.3,29.61,East,89,3.2,8.1,52,0.00,,,0.00,WeatherDisplay:10.37,2013-03-04 20:05:00,
2013-03-04 14:10:00,62.4,44.5,29.61,East,101,4.5,6.9,52,0.00,,,0.00,WeatherDisplay:10.37,2013-03-04 20:10:00,
2013-03-04 14:15:00,62.4,44.0,29.61,SSE,163,4.7,8.1,51,0.00,,,0.00,WeatherDisplay:10.37,2013-03-04 20:15:00,
2013-03-04 14:21:00,62.5,44.6,29.61,SE,131,1.4,8.1,52,0.00,,,0.00,WeatherDisplay:10.37,2013-03-04 20:21:00,
2013-03-04 14:26:00,63.0,44.1,29.61,East,94,5.3,8.1,50,0.00,,,0.00,WeatherDisplay:10.37,2013-03-04 20:26:00,
2013-03-04 14:31:00,62.9,44.5,29.61,ESE,123,7.0,11.5,51,0.00,,,0.00,WeatherDisplay:10.37,2013-03-04 20:31:00,
2013-03-04 14:36:00,62.8,44.9,29.61,ESE,117,8.7,12.7,52,0.00,,,0.00,WeatherDisplay:10.37,2013-03-04 20:36:00,
2013-03-04 14:41:00,63.1,45.7,29.61,South,190,2.5,5.8,53,0.00,,,0.00,WeatherDisplay:10.37,2013-03-04 20:41:00,
2013-03-04 14:46:00,63.9,44.9,29.61,ESE,116,7.8,10.4,50,0.00,,,0.00,WeatherDisplay:10.37,2013-03-04 20:46:00,
2013-03-04 14:51:00,63.8,45.3,29.61,ESE,117,4.2,9.0,51,0.00,,,0.00,WeatherDisplay:10.37,2013-03-04 20:51:00,
2013-03-04 14:56:00,63.2,44.8,29.61,ESE,108,6.4,9.2,51,0.00,,,0.00,WeatherDisplay:10.37,2013-03-04 20:56:00,
2013-03-04 15:01:00,63.3,44.9,29.61,SE,141,4.8,9.2,51,0.00,,,0.00,WeatherDisplay:10.37,2013-03-04 21:01:00,
2013-03-04 15:06:00,63.4,44.9,29.61,ESE,123,6.6,9.2,51,0.00,,,0.00,WeatherDisplay:10.37,2013-03-04 21:06:00,
2013-03-04 15:11:00,62.6,45.2,29.61,SE,125,6.9,13.8,53,0.00,,,0.00,WeatherDisplay:10.37,2013-03-04 21:11:00,
2013-03-04 15:16:00,62.6,45.7,29.61,ENE,72,2.2,3.5,54,0.00,,,0.00,WeatherDisplay:10.37,2013-03-04 21:16:00,
2013-03-04 15:21:00,63.2,45.8,29.61,ENE,60,3.9,8.1,53,0.00,,,0.00,WeatherDisplay:10.37,2013-03-04 21:21:00,
2013-03-04 15:26:00,63.5,45.6,29.62,SW,222,3.2,4.6,52,0.00,,,0.00,WeatherDisplay:10.37,2013-03-04 21:26:00,
2013-03-04 15:31:00,63.9,45.9,29.62,ESE,123,4.7,8.1,52,0.00,,,0.00,WeatherDisplay:10.37,2013-03-04 21:31:00,
2013-03-04 15:36:00,63.2,45.8,29.62,SE,142,6.3,10.4,53,0.00,,,0.00,WeatherDisplay:10.37,2013-03-04 21:36:00,
2013-03-04 15:41:00,62.8,45.9,29.63,South,174,3.9,6.0,54,0.00,,,0.00,WeatherDisplay:10.37,2013-03-04 21:41:00,
2013-03-04 15:46:00,62.4,45.5,29.63,SSE,165,6.2,10.4,54,0.00,,,0.00,WeatherDisplay:10.37,2013-03-04 21:46:00,
2013-03-04 15:51:00,61.5,45.7,29.63,ESE,105,6.5,9.2,56,0.00,,,0.00,WeatherDisplay:10.37,2013-03-04 21:51:00,
2013-03-04 15:56:00,61.1,45.7,29.63,SSE,166,4.1,7.0,57,0.00,,,0.00,WeatherDisplay:10.37,2013-03-04 21:56:00,
2013-03-04 16:01:00,61.0,45.7,29.63,ENE,73,1.0,2.3,57,0.00,,,0.00,WeatherDisplay:10.37,2013-03-04 22:01:00,
2013-03-04 16:06:00,61.0,46.1,29.63,SSE,150,5.8,10.4,58,0.00,,,0.00,WeatherDisplay:10.37,2013-03-04 22:06:00,
2013-03-04 16:11:00,60.8,45.9,29.63,ESE,108,5.2,8.1,58,0.00,,,0.00,WeatherDisplay:10.37,2013-03-04 22:11:00,
2013-03-04 16:16:00,60.6,46.2,29.64,ESE,110,3.9,8.0,59,0.00,,,0.00,WeatherDisplay:10.37,2013-03-04 22:16:00,
2013-03-04 16:21:00,60.3,45.9,29.64,South,170,4.6,8.1,59,0.00,,,0.00,WeatherDisplay:10.37,2013-03-04 22:21:00,
2013-03-04 16:26:00,60.1,46.2,29.64,SE,124,3.3,6.9,60,0.00,,,0.00,WeatherDisplay:10.37,2013-03-04 22:26:00,
2013-03-04 16:31:00,60.0,46.1,29.64,East,94,3.9,5.0,60,0.00,,,0.00,WeatherDisplay:10.37,2013-03-04 22:31:00,
2013-03-04 16:36:00,59.7,46.2,29.64,East,83,1.7,3.5,61,0.00,,,0.00,WeatherDisplay:10.37,2013-03-04 22:36:00,
2013-03-04 16:41:00,59.5,46.5,29.64,East,94,7.9,11.5,62,0.00,,,0.00,WeatherDisplay:10.37,2013-03-04 22:41:00,
2013-03-04 16:46:00,59.2,46.6,29.65,SE,142,6.7,11.5,63,0.00,,,0.00,WeatherDisplay:10.37,2013-03-04 22:46:00,
2013-03-04 16:51:00,59.0,46.4,29.65,East,96,2.2,3.5,63,0.00,,,0.00,WeatherDisplay:10.37,2013-03-04 22:51:00,
2013-03-04 16:56:00,58.9,46.7,29.64,ESE,111,7.7,11.5,64,0.00,,,0.00,WeatherDisplay:10.37,2013-03-04 22:56:00,
2013-03-04 17:01:00,58.6,46.9,29.65,ESE,109,6.5,9.2,65,0.00,,,0.00,WeatherDisplay:10.37,2013-03-04 23:01:00,
2013-03-04 17:06:00,58.4,46.7,29.65,ENE,76,2.5,6.0,65,0.00,,,0.00,WeatherDisplay:10.37,2013-03-04 23:06:00,
2013-03-04 17:11:00,58.3,46.6,29.65,SE,127,3.1,5.0,65,0.00,,,0.00,WeatherDisplay:10.37,2013-03-04 23:11:00,
2013-03-04 17:16:00,58.2,46.9,29.66,East,79,1.9,4.0,66,0.00,,,0.00,WeatherDisplay:10.37,2013-03-04 23:16:00,
2013-03-04 17:21:00,58.2,46.9,29.66,ESE,113,4.6,8.1,66,0.00,,,0.00,WeatherDisplay:10.37,2013-03-04 23:21:00,
2013-03-04 17:26:00,58.1,46.8,29.66,SE,136,4.1,6.0,66,0.00,,,0.00,WeatherDisplay:10.37,2013-03-04 23:26:00,
2013-03-04 17:31:00,57.9,47.0,29.66,East,91,1.2,3.5,67,0.00,,,0.00,WeatherDisplay:10.37,2013-03-04 23:31:00,
2013-03-04 17:36:00,57.8,46.9,29.66,ESE,105,3.7,6.9,67,0.00,,,0.00,WeatherDisplay:10.37,2013-03-04 23:36:00,
2013-03-04 17:41:00,57.6,46.7,29.66,East,92,5.2,5.8,67,0.00,,,0.00,WeatherDisplay:10.37,2013-03-04 23:41:00,
2013-03-04 17:46:00,57.5,46.6,29.66,ESE,115,4.5,8.1,67,0.00,,,0.00,WeatherDisplay:10.37,2013-03-04 23:46:00,
2013-03-04 17:51:00,57.5,47.0,29.66,ESE,105,4.3,5.8,68,0.00,,,0.00,WeatherDisplay:10.37,2013-03-04 23:51:00,
2013-03-04 17:56:00,57.4,46.9,29.67,East,89,4.1,4.6,68,0.00,,,0.00,WeatherDisplay:10.37,2013-03-04 23:56:00,
2013-03-04 18:01:00,57.3,46.8,29.67,East,86,1.3,4.0,68,0.00,,,0.00,WeatherDisplay:10.37,2013-03-05 00:01:00,
2013-03-04 18:06:00,57.1,46.6,29.67,ENE,75,3.9,5.8,68,0.00,,,0.00,WeatherDisplay:10.37,2013-03-05 00:06:00,
2013-03-04 18:11:00,57.0,46.9,29.67,SE,128,2.4,3.5,69,0.00,,,0.00,WeatherDisplay:10.37,2013-03-05 00:11:00,
2013-03-04 18:16:00,57.0,46.9,29.67,ESE,117,3.8,4.6,69,0.00,,,0.00,WeatherDisplay:10.37,2013-03-05 00:16:00,
2013-03-04 18:21:00,56.8,46.7,29.67,ESE,108,2.6,4.6,69,0.00,,,0.00,WeatherDisplay:10.37,2013-03-05 00:21:00,
2013-03-04 18:26:00,56.5,46.8,29.67,ESE,109,0.9,3.5,70,0.00,,,0.00,WeatherDisplay:10.37,2013-03-05 00:26:00,
2013-03-04 18:31:00,56.3,46.6,29.68,ESE,105,0.4,2.3,70,0.00,,,0.00,WeatherDisplay:10.37,2013-03-05 00:31:00,
2013-03-04 18:36:00,56.2,46.9,29.68,SSE,149,2.7,2.7,71,0.00,,,0.00,WeatherDisplay:10.37,2013-03-05 00:36:00,
2013-03-04 18:41:00,56.0,46.7,29.68,East,101,4.2,5.8,71,0.00,,,0.00,WeatherDisplay:10.37,2013-03-05 00:41:00,
2013-03-04 18:46:00,56.0,46.7,29.68,ESE,108,4.1,5.0,71,0.00,,,0.00,WeatherDisplay:10.37,2013-03-05 00:46:00,
2013-03-04 18:51:00,55.9,46.6,29.69,ESE,113,1.5,4.6,71,0.00,,,0.00,WeatherDisplay:10.37,2013-03-05 00:51:00,
2013-03-04 18:56:00,55.8,46.9,29.69,East,101,2.8,3.5,72,0.00,,,0.00,WeatherDisplay:10.37,2013-03-05 00:56:00,
2013-03-04 19:01:00,55.6,46.7,29.69,East,88,1.9,3.5,72,0.00,,,0.00,WeatherDisplay:10.37,2013-03-05 01:01:00,
2013-03-04 19:06:00,55.5,46.6,29.69,ENE,75,3.3,6.9,72,0.00,,,0.00,WeatherDisplay:10.37,2013-03-05 01:06:00,
2013-03-04 19:11:00,55.3,46.8,29.69,ESE,117,1.3,3.5,73,0.00,,,0.00,WeatherDisplay:10.37,2013-03-05 01:11:00,
2013-03-04 19:16:00,55.1,46.6,29.69,ENE,65,2.0,3.5,73,0.00,,,0.00,WeatherDisplay:10.37,2013-03-05 01:16:00,
2013-03-04 19:21:00,54.8,46.7,29.69,ESE,103,2.2,2.3,74,0.00,,,0.00,WeatherDisplay:10.37,2013-03-05 01:21:00,
2013-03-04 19:26:00,54.5,46.4,29.69,East,98,1.7,2.3,74,0.00,,,0.00,WeatherDisplay:10.37,2013-03-05 01:26:00,
2013-03-04 19:31:00,54.3,46.5,29.69,East,89,2.2,3.5,75,0.00,,,0.00,WeatherDisplay:10.37,2013-03-05 01:31:00,
2013-03-04 19:36:00,54.0,46.3,29.69,East,98,2.4,3.5,75,0.00,,,0.00,WeatherDisplay:10.37,2013-03-05 01:36:00,
2013-03-04 19:41:00,53.8,46.4,29.70,East,94,2.2,3.5,76,0.00,,,0.00,WeatherDisplay:10.37,2013-03-05 01:41:00,
2013-03-04 19:46:00,53.6,46.2,29.69,East,92,2.2,3.5,76,0.00,,,0.00,WeatherDisplay:10.37,2013-03-05 01:46:00,
2013-03-04 19:51:00,53.3,46.3,29.70,ENE,74,1.3,3.5,77,0.00,,,0.00,WeatherDisplay:10.37,2013-03-05 01:51:00,
2013-03-04 19:56:00,53.0,46.0,29.70,ESE,108,2.6,3.5,77,0.00,,,0.00,WeatherDisplay:10.37,2013-03-05 01:56:00,
2013-03-04 20:01:00,52.7,46.0,29.70,East,89,1.9,3.5,78,0.00,,,0.00,WeatherDisplay:10.37,2013-03-05 02:01:00,
2013-03-04 20:06:00,52.4,46.1,29.69,East,91,2.2,3.5,79,0.00,,,0.00,WeatherDisplay:10.37,2013-03-05 02:06:00,
2013-03-04 20:11:00,52.1,46.1,29.70,East,97,2.2,3.5,80,0.00,,,0.00,WeatherDisplay:10.37,2013-03-05 02:11:00,
2013-03-04 20:16:00,52.0,46.0,29.70,East,99,0.4,2.3,80,0.00,,,0.00,WeatherDisplay:10.37,2013-03-05 02:16:00,
2013-03-04 20:22:00,51.8,45.8,29.70,ESE,108,2.8,4.6,80,0.00,,,0.00,WeatherDisplay:10.37,2013-03-05 02:22:00,
2013-03-04 20:27:00,51.8,45.8,29.70,SE,125,2.3,3.5,80,0.00,,,0.00,WeatherDisplay:10.37,2013-03-05 02:27:00,
2013-03-04 20:32:00,51.5,45.9,29.70,East,90,2.7,3.5,81,0.00,,,0.00,WeatherDisplay:10.37,2013-03-05 02:32:00,
2013-03-04 20:37:00,51.3,46.0,29.70,ESE,113,2.3,4.6,82,0.00,,,0.00,WeatherDisplay:10.37,2013-03-05 02:37:00,
2013-03-04 20:42:00,51.0,45.7,29.70,East,101,1.3,2.3,82,0.00,,,0.00,WeatherDisplay:10.37,2013-03-05 02:42:00,
2013-03-04 20:47:00,50.8,45.8,29.71,ESE,109,4.5,5.8,83,0.00,,,0.00,WeatherDisplay:10.37,2013-03-05 02:47:00,
2013-03-04 20:52:00,50.6,45.6,29.71,ESE,108,2.9,5.8,83,0.00,,,0.00,WeatherDisplay:10.37,2013-03-05 02:52:00,
2013-03-04 20:57:00,50.4,45.4,29.71,SE,128,3.1,4.6,83,0.00,,,0.00,WeatherDisplay:10.37,2013-03-05 02:57:00,
2013-03-04 21:02:00,50.1,45.5,29.71,SE,127,2.3,3.5,84,0.00,,,0.00,WeatherDisplay:10.37,2013-03-05 03:02:00,
2013-03-04 21:07:00,49.9,45.3,29.71,ESE,109,1.7,3.5,84,0.00,,,0.00,WeatherDisplay:10.37,2013-03-05 03:07:00,
2013-03-04 21:12:00,49.7,45.4,29.72,East,101,3.0,4.6,85,0.00,,,0.00,WeatherDisplay:10.37,2013-03-05 03:12:00,
2013-03-04 21:17:00,49.6,45.3,29.72,ESE,118,1.2,2.3,85,0.00,,,0.00,WeatherDisplay:10.37,2013-03-05 03:17:00,
2013-03-04 21:22:00,49.5,45.2,29.72,SE,124,3.1,3.5,85,0.00,,,0.00,WeatherDisplay:10.37,2013-03-05 03:22:00,
2013-03-04 21:27:00,49.3,45.0,29.72,ESE,115,1.5,2.3,85,0.00,,,0.00,WeatherDisplay:10.37,2013-03-05 03:27:00,
2013-03-04 21:32:00,49.2,45.2,29.72,East,100,0.3,2.3,86,0.00,,,0.00,WeatherDisplay:10.37,2013-03-05 03:32:00,
2013-03-04 21:37:00,49.0,45.0,29.72,ESE,111,1.2,2.3,86,0.00,,,0.00,WeatherDisplay:10.37,2013-03-05 03:37:00,
2013-03-04 21:42:00,48.9,44.9,29.72,East,79,1.0,1.1,86,0.00,,,0.00,WeatherDisplay:10.37,2013-03-05 03:42:00,
2013-03-04 21:47:00,48.7,45.0,29.73,East,97,1.5,3.0,87,0.00,,,0.00,WeatherDisplay:10.37,2013-03-05 03:47:00,
2013-03-04 21:52:00,48.7,45.0,29.73,ESE,103,2.7,3.5,87,0.00,,,0.00,WeatherDisplay:10.37,2013-03-05 03:52:00,
2013-03-04 21:57:00,48.7,45.0,29.73,ESE,110,1.4,3.5,87,0.00,,,0.00,WeatherDisplay:10.37,2013-03-05 03:57:00,
2013-03-04 22:02:00,48.5,44.8,29.73,ESE,105,2.2,3.5,87,0.00,,,0.00,WeatherDisplay:10.37,2013-03-05 04:02:00,
2013-03-04 22:07:00,48.4,44.7,29.73,ESE,117,1.1,2.3,87,0.00,,,0.00,WeatherDisplay:10.37,2013-03-05 04:07:00,
2013-03-04 22:12:00,48.2,44.8,29.73,ENE,77,2.0,3.5,88,0.00,,,0.00,WeatherDisplay:10.37,2013-03-05 04:12:00,
2013-03-04 22:17:00,48.1,44.7,29.73,ENE,73,1.4,2.3,88,0.00,,,0.00,WeatherDisplay:10.37,2013-03-05 04:17:00,
2013-03-04 22:22:00,48.0,44.6,29.73,ENE,77,0.0,0.0,88,0.00,,,0.00,WeatherDisplay:10.37,2013-03-05 04:22:00,
2013-03-04 22:27:00,47.7,44.3,29.74,East,94,0.0,1.1,88,0.00,,,0.00,WeatherDisplay:10.37,2013-03-05 04:27:00,
2013-03-04 22:32:00,47.5,44.1,29.74,East,94,0.0,0.0,88,0.00,,,0.00,WeatherDisplay:10.37,2013-03-05 04:32:00,
2013-03-04 22:37:00,47.4,44.3,29.75,NW,323,0.5,1.1,89,0.00,,,0.00,WeatherDisplay:10.37,2013-03-05 04:37:00,
2013-03-04 22:42:00,47.3,44.5,29.75,NW,323,0.0,0.0,90,0.00,,,0.00,WeatherDisplay:10.37,2013-03-05 04:42:00,
2013-03-04 22:47:00,47.0,43.9,29.75,NW,323,0.0,0.0,89,0.00,,,0.00,WeatherDisplay:10.37,2013-03-05 04:47:00,
2013-03-04 22:52:00,46.7,43.6,29.75,NW,323,0.0,0.0,89,0.00,,,0.00,WeatherDisplay:10.37,2013-03-05 04:52:00,
2013-03-04 22:57:00,46.3,43.2,29.75,NW,323,0.0,0.0,89,0.00,,,0.00,WeatherDisplay:10.37,2013-03-05 04:57:00,
2013-03-04 23:00:00,46.2,43.4,29.75,NW,323,0.3,1.1,90,0.00,,,0.00,WeatherDisplay:10.37,2013-03-05 05:00:00,
2013-03-04 23:05:00,46.0,43.5,29.75,NW,315,0.0,0.0,91,0.00,,,0.00,WeatherDisplay:10.37,2013-03-05 05:05:00,
2013-03-04 23:10:00,46.0,43.8,29.76,NW,315,0.0,0.0,92,0.00,,,0.00,WeatherDisplay:10.37,2013-03-05 05:10:00,
2013-03-04 23:15:00,45.3,43.1,29.77,WNW,296,8.4,11.5,92,0.00,,,0.00,WeatherDisplay:10.37,2013-03-05 05:15:00,
2013-03-04 23:20:00,45.3,43.1,29.77,WNW,300,2.2,3.5,92,0.00,,,0.00,WeatherDisplay:10.37,2013-03-05 05:20:00,
2013-03-04 23:25:00,45.3,43.1,29.77,NW,304,3.4,4.6,92,0.00,,,0.00,WeatherDisplay:10.37,2013-03-05 05:25:00,
2013-03-04 23:30:00,45.7,43.5,29.77,NW,324,2.7,4.6,92,0.00,,,0.00,WeatherDisplay:10.37,2013-03-05 05:30:00,
2013-03-04 23:35:00,45.9,43.4,29.77,NW,322,2.9,3.5,91,0.00,,,0.00,WeatherDisplay:10.37,2013-03-05 05:35:00,
2013-03-04 23:40:00,46.0,43.8,29.77,NW,316,1.6,3.5,92,0.00,,,0.00,WeatherDisplay:10.37,2013-03-05 05:40:00,
2013-03-04 23:45:00,46.1,43.6,29.78,NNW,334,4.3,6.0,91,0.00,,,0.00,WeatherDisplay:10.37,2013-03-05 05:45:00,
2013-03-04 23:50:00,46.2,43.7,29.78,NW,317,7.5,11.5,91,0.00,,,0.00,WeatherDisplay:10.37,2013-03-05 05:50:00,
2013-03-04 23:55:00,45.8,42.4,29.77,WNW,294,5.6,9.0,88,0.00,,,0.00,WeatherDisplay:10.37,2013-03-05 05:55:00,